Wind_Speed
8 7 6 7 6 4 1 4 1 5 5 4 2 2 7 6 8 4 14 12 18 18 16 15 12 12 11 13 12 13 14 15 14 15 16 16 15 15 15 17 17 16 19 18 17 18 19 20 22
5 6 6 2 5 4 6 5 5 5 6 4 4 3 2 5 4 9 17 11 17 17 16 15 15 14 13 14 12 12 13 14 14 15 16 15 15 15 15 16 17 17 18 18 17 17 20 21 21
4 3 5 3 3 4 5 1 4 6 6 5 4 3 3 4 4 17 11 17 18 16 16 16 16 15 15 15 13 13 13 14 15 15 15 15 15 16 17 17 17 16 17 15 16 18 20 21 21
3 4 4 7 3 3 4 1 5 8 4 3 1 4 4 3 12 8 16 19 18 17 15 16 17 17 16 16 14 13 13 14 14 15 15 15 16 16 17 18 17 17 15 17 18 18 20 20 22
3 4 6 3 3 2 1 2 5 7 5 6 5 3 1 7 8 11 17 18 18 17 16 16 18 18 16 16 14 12 12 14 13 14 14 15 16 17 17 17 18 17 17 18 18 19 20 20 23
5 5 6 6 2 1 1 5 7 7 4 5 5 2 4 10 12 14 17 18 17 17 15 16 17 16 15 16 15 14 13 13 13 14 14 15 16 17 18 18 19 18 18 18 20 21 20 22 23
7 7 10 3 1 3 2 6 8 8 6 6 2 5 5 13 13 15 17 18 18 18 17 16 17 17 15 14 14 15 14 14 14 14 14 15 15 16 18 18 19 18 19 19 20 21 21 22 25
5 6 11 8 5 2 6 8 4 9 7 4 2 2 4 14 15 15 17 19 19 18 18 18 17 16 15 16 16 15 15 14 15 15 14 15 15 15 16 18 18 18 19 19 20 21 21 24 27
2 7 9 10 6 3 7 9 4 2 5 3 5 3 3 17 17 17 18 18 18 19 20 20 20 18 18 16 18 17 16 15 16 16 15 15 14 14 12 14 17 18 19 19 19 19 21 23 23
6 9 13 4 4 3 7 9 9 6 11 11 9 7 6 15 18 20 21 22 22 21 21 20 20 20 20 19 19 17 18 18 17 18 18 14 13 12 14 16 15 16 17 18 21 23 20 14 13
4 10 3 1 2 1 4 7 3 8 13 11 12 13 13 16 19 20 22 23 24 22 20 21 20 20 20 19 19 19 20 20 20 19 19 17 17 17 15 18 16 17 17 20 20 13 10 10 10
7 4 4 1 2 2 4 1 5 14 15 5 8 4 18 17 20 23 23 24 23 23 23 22 21 22 21 19 18 17 16 17 18 20 21 21 21 20 18 16 15 17 13 15 12 12 13 12 13
7 3 3 1 3 3 2 7 8 13 14 7 1 5 14 15 20 21 23 22 22 24 24 24 23 22 20 18 17 20 17 19 19 20 22 19 19 20 21 20 20 19 17 15 15 17 15 15 14
2 4 4 4 5 3 4 8 1 7 8 15 13 12 12 16 20 21 22 24 25 25 25 25 26 24 23 23 19 20 19 17 21 20 23 23 23 21 22 21 22 16 16 17 17 16 19 17 15
2 4 7 9 7 3 3 10 16 15 7 8 15 15 15 15 19 23 25 26 28 27 26 27 27 25 23 24 24 22 21 23 19 21 21 24 24 24 21 25 21 18 19 21 19 18 20 20 17
5 4 9 7 7 4 5 12 5 3 9 14 16 15 15 17 21 23 24 25 26 26 28 27 26 26 24 23 23 23 22 20 22 19 21 24 25 27 23 28 25 23 25 24 20 22 20 23 20
7 9 11 7 7 4 11 8 2 1 6 12 13 15 15 16 19 23 25 26 27 29 29 29 28 26 26 23 22 22 23 24 22 22 22 22 26 28 29 29 30 29 28 27 25 20 22 27 23
11 9 8 11 5 7 10 16 16 16 14 14 15 16 15 15 18 24 26 27 27 29 29 29 29 27 25 22 21 20 22 23 23 23 24 27 27 30 29 32 34 32 32 31 27 25 21 26 27
6 7 9 3 3 4 11 18 17 17 19 19 19 20 19 20 19 22 24 27 27 28 29 31 30 27 26 26 24 23 23 22 24 30 31 29 29 33 36 35 34 35 36 36 33 30 31 27 28
10 13 14 14 3 4 13 20 18 18 23 21 20 21 20 19 19 19 21 24 29 30 32 30 31 29 29 25 24 22 22 22 22 27 35 33 32 31 36 37 37 39 39 34 36 37 29 20 32
14 15 13 14 3 12 13 16 16 15 17 15 20 21 21 21 19 16 18 24 25 29 32 34 34 32 30 28 23 21 15 17 20 23 34 38 36 35 36 36 38 41 43 43 40 40 36 27 32
16 12 14 12 8 8 2 10 17 17 18 15 15 18 19 17 15 14 14 22 26 28 30 32 31 32 32 32 28 30 27 23 23 24 32 36 36 36 35 36 38 42 44 42 43 44 41 29 31
5 3 6 6 9 10 14 8 8 11 10 15 17 16 15 13 12 10 11 18 19 22 25 27 27 29 30 32 32 30 27 23 18 20 23 34 35 36 38 38 37 42 44 46 45 44 39 32 31
9 5 4 2 4 9 14 15 14 14 11 8 7 7 6 6 5 5 7 8 14 16 19 22 25 27 28 29 31 29 27 24 21 21 23 33 35 36 37 38 39 41 45 44 45 44 39 34 28
10 7 4 5 6 11 5 6 16 9 9 10 11 12 11 2 4 5 6 8 12 16 19 22 24 27 28 29 29 30 27 25 24 23 23 32 36 38 41 39 40 40 43 41 40 41 39 32 29
14 15 8 9 8 12 5 10 9 3 6 8 10 13 11 8 6 8 7 8 10 12 15 17 20 23 26 28 27 26 26 25 25 23 23 30 39 40 39 38 38 39 41 39 39 38 37 35 30
8 11 14 13 3 5 10 20 19 11 8 14 16 15 14 10 7 8 9 10 8 10 12 14 15 16 20 23 24 25 26 26 24 22 25 28 35 37 39 40 41 40 40 39 38 37 36 31 33
8 2 8 8 6 12 14 19 15 10 13 13 10 10 9 7 6 7 6 8 7 8 10 11 13 14 16 19 22 24 26 26 26 23 23 24 32 33 35 37 39 42 41 39 37 35 32 34 34
8 10 8 6 9 7 12 13 13 8 7 4 5 4 6 9 9 7 3 3 6 6 8 9 11 13 15 18 21 23 24 25 25 25 25 26 30 31 35 37 38 40 41 39 36 35 35 34 34
14 22 22 11 12 7 11 19 0 6 4 4 9 9 3 3 4 3 2 2 4 6 8 10 11 13 15 17 20 23 23 24 25 26 25 27 35 34 33 35 37 39 40 39 37 37 36 39 36
Wind_Direction
335 311 287 256 248 240 304 106 40 128 147 80 77 301 6 17 3 29 144 147 156 165 168 175 172 166 150 132 124 118 109 105 107 102 95 96 96 97 98 100 101 93 91 90 86 82 79 78 78
306 302 253 276 262 262 80 103 183 154 81 136 149 207 237 70 63 120 151 152 152 160 168 172 174 169 160 142 134 124 117 112 106 99 99 98 98 98 99 97 101 96 94 92 90 85 83 82 81
291 278 268 260 288 329 18 120 139 112 129 171 168 259 357 81 125 148 135 154 154 159 166 174 174 169 162 151 140 133 126 119 112 108 104 104 103 102 101 99 98 98 98 98 90 90 88 87 87
278 212 228 253 320 54 347 95 123 151 147 199 290 191 134 45 145 144 151 155 159 161 164 180 173 173 168 157 148 143 134 123 117 111 111 107 103 103 102 102 102 101 104 98 94 90 89 90 91
217 260 250 248 313 344 87 89 180 182 145 166 192 143 106 157 141 151 156 162 164 165 165 172 174 175 172 166 158 150 140 134 127 118 111 109 108 103 104 104 105 106 103 100 97 94 93 94 96
230 276 240 234 108 107 178 167 196 200 168 125 199 212 126 157 164 164 167 171 172 171 168 171 175 177 177 174 168 157 152 146 133 125 118 114 110 110 112 111 110 109 105 101 100 99 99 101 101
253 236 255 282 295 256 193 166 202 210 198 203 348 230 99 172 175 170 176 178 178 175 175 174 174 178 182 180 179 168 160 153 143 134 127 121 119 120 121 118 114 112 110 108 106 106 104 106 103
269 266 249 246 246 271 142 170 214 225 224 79 258 246 183 175 170 174 178 181 182 178 182 181 180 180 181 185 183 179 169 161 154 146 136 127 122 123 124 121 120 115 114 113 112 112 116 112 105
276 248 244 245 248 260 143 192 174 32 243 207 188 290 59 150 167 174 181 180 190 187 190 186 183 183 184 185 185 184 180 172 163 155 144 125 124 119 114 130 125 123 119 117 118 119 120 117 112
232 233 253 5 294 275 177 213 172 210 216 226 216 182 155 161 176 181 188 190 195 195 196 191 189 188 188 185 187 183 184 180 171 167 158 152 144 140 132 133 132 128 126 122 120 116 108 104 99
189 246 322 179 302 288 210 212 192 228 242 230 228 197 179 181 190 196 199 201 200 199 199 198 194 195 193 189 186 189 191 188 184 181 169 165 168 163 143 141 136 133 129 126 122 107 116 113 105
231 251 280 64 177 191 210 300 223 235 244 16 280 271 178 191 197 202 205 207 202 203 202 202 200 199 199 196 193 193 195 199 194 192 184 186 183 162 166 157 157 143 143 141 136 127 118 109 106
230 219 213 179 202 223 315 240 254 256 251 225 264 207 195 202 208 211 213 212 207 207 205 204 203 202 200 201 198 203 206 204 201 197 195 185 182 179 175 183 172 163 158 155 147 137 129 117 109
103 218 224 210 217 211 253 260 296 233 247 238 220 223 220 216 215 213 213 213 211 209 207 205 205 206 204 199 207 213 211 214 215 206 199 192 194 189 191 191 179 172 163 166 149 147 144 134 124
172 225 223 222 216 214 252 253 242 249 205 247 237 235 233 226 225 220 215 214 212 211 210 206 206 205 206 209 211 215 222 219 217 221 208 205 201 193 192 192 180 173 170 165 173 159 148 144 133
227 240 237 127 188 159 205 263 290 22 234 248 250 242 234 232 229 226 223 218 217 213 211 208 205 204 205 207 209 214 219 221 222 222 218 212 205 202 186 191 191 190 180 181 171 162 153 149 138
208 256 218 212 205 173 209 277 252 136 237 257 255 252 247 238 230 227 222 219 215 213 211 209 207 206 207 209 212 217 220 223 223 224 220 211 210 206 198 196 202 196 188 182 177 169 162 153 143
246 231 236 257 152 223 233 253 269 273 253 256 264 263 254 244 241 232 224 219 216 213 212 211 209 208 207 208 211 217 219 222 220 220 220 218 208 208 195 205 205 198 187 182 179 173 166 159 149
292 293 270 226 143 279 261 271 267 272 271 266 260 257 257 255 246 232 225 217 213 213 211 211 209 209 204 203 205 209 213 215 222 218 220 218 214 213 211 210 205 197 195 191 185 179 168 155 148
249 259 262 271 106 243 283 280 276 268 262 259 262 261 259 255 247 233 221 211 209 210 210 209 210 208 206 204 206 211 217 222 225 231 225 223 221 219 215 211 205 200 197 191 185 179 159 164 167
236 246 257 263 294 239 286 273 266 249 248 265 260 262 263 259 256 242 210 214 212 212 209 208 207 206 204 203 202 205 217 218 219 221 224 223 221 221 219 218 212 205 202 196 191 188 180 169 182
249 239 253 269 281 273 223 285 284 284 272 248 256 259 255 251 246 245 252 210 212 218 215 212 208 204 204 201 200 200 204 208 221 221 222 217 218 219 222 222 212 209 205 199 197 197 191 184 182
250 30 239 258 261 290 239 266 266 255 262 262 256 259 266 268 268 255 232 232 220 218 215 214 210 208 207 204 205 205 207 215 217 209 217 216 216 219 220 217 214 213 200 205 204 200 191 200 184
135 121 120 221 275 263 257 236 263 251 269 258 265 261 251 272 289 254 240 233 217 218 206 207 208 211 210 209 210 211 213 214 210 201 208 211 214 216 218 219 216 215 210 211 210 208 195 200 192
201 193 239 239 202 252 43 289 252 294 279 251 271 296 293 256 273 253 210 201 205 201 198 203 207 210 207 209 214 218 221 219 217 206 206 208 213 215 218 218 216 214 215 215 212 208 201 201 195
198 204 212 237 243 267 103 238 272 248 305 299 264 271 290 283 255 250 228 215 205 202 203 205 208 211 208 208 213 221 225 225 222 216 212 212 217 216 215 215 216 215 216 215 211 209 205 203 197
177 221 246 268 296 284 253 266 271 232 234 262 269 272 271 289 253 248 244 229 216 201 200 204 207 214 215 215 212 219 223 223 225 220 217 217 219 220 219 217 217 215 213 211 211 212 207 200 201
236 306 208 218 232 238 256 257 258 289 273 266 256 275 294 312 297 249 231 201 194 199 196 199 203 212 216 215 217 218 219 219 219 219 217 217 221 221 221 218 217 216 215 214 212 209 200 197 200
191 220 224 246 227 245 256 260 271 302 13 332 353 315 313 333 338 300 231 208 180 190 192 199 206 211 214 215 218 220 220 219 217 219 214 213 211 216 220 220 219 216 214 212 208 207 206 199 199
261 226 218 220 223 240 267 269 257 334 4 341 323 327 336 302 325 337 315 266 218 215 216 207 209 216 220 221 220 218 219 217 218 218 214 215 218 218 222 223 221 216 213 209 207 206 204 202 198
Height
795 795 793 789 800 795 802 806 798 807 807 802 801 806 808 808 813 827 824 825 828 833 837 840 843 846 847 847 848 848 848 848 850 850 849 850 852 852 852 852 852 853 852 854 855 855 854 854 853
797 795 792 784 802 805 798 795 806 801 802 804 808 810 809 813 813 819 823 827 829 833 837 841 843 845 847 848 849 850 850 851 851 851 851 853 853 854 855 854 854 855 856 856 858 858 857 857 857
796 795 790 791 798 804 804 798 794 803 805 806 809 809 809 813 816 819 821 826 830 834 838 841 843 845 848 849 851 852 852 853 853 853 854 855 856 856 856 856 857 858 859 860 861 861 859 859 860
796 793 788 800 800 794 799 795 794 806 809 808 805 810 813 817 816 819 824 827 830 834 837 839 843 846 848 849 852 853 854 855 855 855 857 857 856 858 858 858 859 861 863 863 863 863 861 863 862
796 788 797 802 800 795 795 794 796 804 804 806 808 808 811 819 820 823 825 828 831 835 837 840 843 846 848 850 852 854 854 856 857 857 858 858 859 859 860 861 862 864 865 864 865 865 865 866 865
795 788 803 804 796 795 795 795 797 800 802 807 812 809 811 817 821 823 826 829 831 835 838 841 843 846 849 850 853 854 856 858 858 860 860 860 860 861 863 864 864 866 866 867 867 867 869 869 870
798 796 799 798 800 801 795 795 800 801 803 806 804 810 810 818 820 823 826 828 831 835 838 841 843 846 849 851 853 855 857 858 860 861 861 862 862 863 865 865 866 867 868 869 869 870 871 872 873
794 793 798 797 798 802 794 797 795 798 802 806 806 807 807 813 819 823 825 827 830 834 837 840 843 846 849 851 853 855 857 859 860 862 862 863 864 866 867 867 868 868 870 871 871 871 873 875 876
797 803 803 798 800 794 794 800 800 800 802 806 806 807 811 812 819 822 825 827 830 833 836 839 841 844 847 850 852 855 856 858 860 862 863 865 867 869 870 869 869 871 872 872 873 874 876 878 879
798 802 795 786 786 793 795 796 797 805 804 805 806 809 813 815 818 820 822 825 829 831 834 837 840 843 846 848 850 853 855 857 859 860 863 866 869 870 870 871 872 872 873 874 876 878 881 882 883
794 802 788 791 795 795 796 799 797 802 802 796 797 799 811 814 816 818 820 822 825 829 833 835 838 841 844 846 848 851 852 855 857 860 862 864 866 868 870 871 873 874 875 877 879 882 884 885 885
802 796 797 799 802 801 801 796 801 801 793 792 791 793 804 809 811 813 815 818 822 825 829 833 836 839 841 844 846 848 850 853 855 858 860 861 863 866 868 870 873 875 877 879 880 882 883 885 886
800 797 801 801 805 802 804 800 799 794 791 793 797 799 799 804 806 809 811 815 818 821 825 828 832 835 838 841 843 845 848 850 852 854 857 859 862 864 867 868 870 873 876 878 879 880 882 885 887
796 800 799 801 802 802 806 798 802 788 788 789 793 797 798 799 800 804 807 809 812 816 820 824 828 831 833 836 839 841 845 847 849 851 853 855 857 860 863 865 868 871 875 877 879 880 880 883 887
801 805 799 799 800 801 803 803 796 784 788 791 790 792 792 794 797 798 800 803 806 811 816 819 823 826 829 831 835 839 840 843 845 847 850 853 854 857 860 863 867 869 872 875 876 878 880 881 886
803 803 804 793 802 803 804 800 776 780 781 788 786 784 786 788 791 793 796 799 803 807 810 814 818 821 824 827 831 834 837 839 841 844 846 848 851 853 856 859 863 865 868 871 874 876 879 880 885
803 800 799 796 799 799 804 793 777 784 787 786 781 778 777 779 784 787 789 792 796 799 804 808 811 815 819 823 827 830 833 835 837 839 840 843 846 849 851 854 857 860 864 868 870 876 878 879 884
799 804 797 801 802 805 799 795 785 779 779 781 778 773 771 774 775 778 782 785 789 793 797 802 805 808 813 818 821 824 827 829 831 834 835 837 841 843 846 849 852 856 860 864 868 872 877 879 881
800 799 800 789 801 806 794 786 780 773 771 770 768 767 767 764 765 770 773 778 782 786 790 794 798 802 807 810 814 817 819 823 824 826 829 832 834 838 840 843 847 851 855 858 861 866 873 878 881
804 805 801 790 800 810 793 784 774 771 763 762 761 757 756 754 755 759 765 770 774 777 781 786 790 795 799 803 808 812 815 817 819 820 822 824 828 832 834 836 840 844 850 854 856 860 869 876 876
802 804 799 798 803 801 801 784 766 755 754 755 753 750 750 747 747 750 756 762 767 769 773 776 780 786 791 796 802 807 811 812 812 812 813 816 821 826 828 831 834 838 842 847 848 855 859 864 872
804 789 800 801 810 805 797 787 761 754 751 746 746 746 741 740 742 746 748 751 758 762 766 770 774 778 783 788 792 794 797 800 802 804 806 809 814 819 822 826 829 832 834 841 842 848 852 857 860
799 802 804 806 809 806 797 807 762 748 753 746 739 736 735 735 736 738 743 747 751 757 761 765 770 774 778 781 784 787 789 793 796 799 801 804 808 813 816 819 823 826 828 832 837 842 847 852 855
805 808 810 810 808 812 784 784 755 749 739 734 732 730 731 731 734 738 741 744 747 752 756 760 764 768 774 778 780 782 784 788 791 793 795 797 801 806 810 814 817 820 824 827 831 835 841 846 850
805 807 814 816 819 801 782 787 748 742 737 738 733 732 729 735 736 737 740 744 746 747 749 753 757 760 765 769 775 779 781 784 785 787 789 791 794 797 801 807 812 814 819 823 827 831 837 842 846
805 796 803 814 803 786 807 787 745 731 731 734 735 733 731 734 736 738 737 739 742 746 748 750 753 755 759 762 767 774 777 780 781 783 784 785 786 791 795 800 805 809 813 818 822 826 832 836 840
800 805 784 801 813 814 778 748 730 732 739 735 731 729 728 729 730 733 734 735 740 743 744 747 751 755 758 760 762 766 771 774 776 778 780 781 781 785 789 794 798 802 807 812 816 820 826 831 833
787 783 804 802 811 806 771 761 745 734 732 727 731 730 727 729 729 730 732 733 736 740 742 745 747 751 754 756 760 761 763 766 769 772 774 777 778 781 785 789 792 796 801 806 811 815 820 823 827
792 793 789 781 784 786 783 752 720 724 728 730 731 733 733 732 731 730 733 736 736 740 740 742 744 747 750 752 754 757 759 761 763 765 767 770 773 776 780 784 788 790 795 801 806 811 814 818 822
769 770 773 781 782 779 781 755 720 727 735 736 733 731 733 737 734 734 735 738 739 739 740 739 741 744 746 748 749 750 754 756 758 760 762 764 766 770 775 780 783 787 791 795 800 805 809 812 817